F1GZH-2 Weather Reports


time (UTC)temp
C
wind
direction
speed
KPH
gust
KPH
rain 1hr
cm
rain 24hr
cm
rain mn
cm
humidity
%
barometer
mb
20260507160937 20 135 4.8 8.0 0.00 0.00 0.00 65 1020.8
20260507154936 18 67 0.0 3.2 0.00 0.00 0.00 69 1020.8
20260507152935 16 112 0.0 6.4 0.00 0.00 0.00 72 1020.8
20260507150934 15 90 0.0 3.2 0.00 0.00 0.00 76 1021.1
20260507144933 15 112 0.0 3.2 0.00 0.00 0.00 75 1021.1
20260507142932 15 112 0.0 4.8 0.00 0.00 0.00 77 1021.3
20260507140931 15 67 0.0 3.2 0.00 0.00 0.00 77 1021.4
20260507134929 14 45 0.0 4.8 0.00 0.00 0.00 78 1021.6
20260507132928 13 45 1.6 3.2 0.00 0.00 0.00 78 1021.6
20260507130927 12 67 0.0 0.0 0.00 0.00 0.00 78 1021.5
20260507124926 13 22 0.0 8.0 0.00 0.00 0.00 78 1021.5
20260507122925 15 0 3.2 3.2 0.00 0.00 0.00 77 1021.5
20260507120924 16 45 1.6 3.2 0.00 0.00 0.00 75 1021.5
20260507114923 16 45 0.0 6.4 0.00 0.00 0.00 76 1021.4
20260507112922 16 45 0.0 3.2 0.00 0.00 0.00 77 1021.6
20260507110920 14 0 0.0 0.0 0.00 0.00 0.00 71 1021.5
20260507104919 13 0 1.6 3.2 0.00 0.00 0.00 72 1021.6
20260507102918 14 225 0.0 3.2 0.00 0.00 0.00 73 1021.5
20260507100917 16 22 0.0 3.2 0.00 0.00 0.00 72 1021.5
20260507094916 16 0 0.0 0.0 0.00 0.00 0.00 45 1021.4
20260507092915 13 270 0.0 0.0 0.00 0.00 0.00 18 1021.3
20260507090914 12 22 0.0 0.0 0.00 0.00 0.00 10 1021.3
20260507084912 12 22 0.0 0.0 0.00 0.00 0.00 10 1021.1
20260507082911 11 315 0.0 0.0 0.00 0.00 0.00 10 1021.1
20260507080910 11 0 0.0 0.0 0.00 0.00 0.00 10 1020.9
20260507074909 11 247 0.0 0.0 0.00 0.00 0.00 10 1020.9
20260506170451 10 315 0.0 3.2 0.00 0.00 0.00 74 1015.6
20260506164450 11 0 1.6 6.4 0.00 0.00 0.00 77 1015.5
20260506162449 11 22 3.2 8.0 0.00 0.00 0.00 78 1015.5